Flag for Canada Weather past 2 weeks in Sherbrooke, Quebec, Canada

Now
52 °F

Overcast.


Feels Like: 47 °F
Forecast: 36 / 64 °F
Wind: 13 mph from Southwest

Location: Sherbrooke

Current Time: Sep 20, 2014 at 12:55:16 PM

Latest Report: Sep 20, 2014 at 9:00 AM


Visibility: 9 mi

Pressure: 30.14 "Hg

Humidity: 77%

Dew point: 45 °F

Location of SherbrookeLocation

Historic Weather in Sherbrooke — Graph

°F

Sherbrooke temperature yesterday

Maximum temperature yesterday: 54 °F (at 4:00 PM)
Minimum temperature yesterday: 27 °F (at 5:00 AM)
Average temperature yesterday: 39 °F

Past Weeks' High & Low Weather Summary

 TemperatureHumidityPressure
High86 °F (Sep 5, 4:00 PM)100% (Sep 6, 6:53 PM)30.43 "Hg (Sep 6, 6:53 PM)
Low27 °F (Sep 19, 5:00 AM)24% (Sep 19, 4:00 PM)29.62 "Hg (Sep 11, 3:00 PM)
Average53 °F81%30.10 "Hg
* Reported Sep 5 9:00 AM — Sep 20 9:00 AM, Sherbrooke, Weather by CustomWeather, © 2014

Note: Actual official high and low records may vary slightly from our data, if they occured in-between our weather recording intervals... More about our weather records

Advertising

Sherbrooke weather history for previous 24 hours

 ConditionsComfort  
Time TempWeatherWind HumidityBarometerVisibility
9:00 AM
Sep 20
52 °FOvercast.13 mph77%30.14 "Hg9 mi
8:00 AM48 °FMostly cloudy.9 mph82%30.16 "Hg9 mi
7:00 AM39 °FPassing clouds.2 mph93%30.19 "Hg9 mi
6:00 AM37 °FPartly cloudy.2 mph93%30.19 "Hg9 mi
5:00 AM36 °FPassing clouds.2 mph93%30.22 "Hg9 mi
4:00 AM34 °FClear.3 mph93%30.23 "Hg9 mi
3:00 AM34 °FClear.3 mph93%30.26 "Hg9 mi
2:00 AM34 °FClear.6 mph87%30.26 "Hg9 mi
1:00 AM34 °FClear.5 mph93%30.28 "Hg9 mi
12:00 AM34 °FClear.No wind93%30.29 "Hg9 mi
11:00 PM
Sep 19
34 °FClear.2 mph93%30.29 "Hg9 mi
10:00 PM36 °FClear.No wind93%30.29 "Hg9 mi
9:00 PM37 °FClear.5 mph87%30.32 "Hg9 mi
8:00 PM39 °FClear.2 mph81%30.33 "Hg9 mi
7:00 PM43 °FSunny.No wind71%30.34 "Hg9 mi
6:00 PM52 °FSunny.2 mph35%30.33 "Hg9 mi
5:00 PM52 °FSunny.5 mph30%30.34 "Hg9 mi
4:00 PM54 °FSunny.5 mph24%30.36 "Hg9 mi
3:00 PM52 °FSunny.5 mph32%30.38 "Hg9 mi
2:00 PM52 °FSunny.3 mph35%30.39 "Hg9 mi
1:00 PM50 °FSunny.3 mph37%30.42 "Hg9 mi
12:00 PM48 °FSunny.3 mph43%30.42 "Hg9 mi
Weather by CustomWeather, © 2014

See weather overviewHow to use our weather pages